Content
SEND FEEDBACK

Daily
Averages
Monthly
Summary
United States of America

DRAPER, UTAH


Home > North America > United States > Utah
Elevation: 5059 feet     Latitude: 40 29N     Longitude: 111 54W

WEATHER
 
SELECT A DAY
Number of Records: 398,665;   Date Range: 1/1/95 - 7/22/14
 
SHARE

PRINT THIS DATA

[ ← Previous Day ]
WEATHER ALMANAC - FEBRUARY 13, 2013
[ Next Day → ]
[ °C ]   °F
Weather ElementAverageHighLow
Temperature25.9 °F33.8 °F (2:47 pm)23 °F (12:35 am)
Dewpoint21.3 °F26.6 °F (7:49 pm)19.4 °F (12:35 am)
Humidity82.9 %93 % (12:55 am)60 % (2:47 pm)
Barometer30.34 in30.39 in (12:55 am)30.28 in (5:50 pm)
Wind Speed0.6 mph4.6 mph (4:15 am)
Weather ElementAverage
Visibility7.3 mi
Wind DirectionNNE (32.4 °)

Weather ElementTotal
Precipitation---
Heating Degree Days36.6 (Base 65)
Averaged from 42 records on February 13, 2013
WEATHER CONDITIONS BREAKOUT
WIND DIRECTION BREAKOUT
WEATHER BY HOUR - FEBRUARY 13, 2013
[ °C ]   °F
Local TimeTemperatureDewpointHumidityBarometerVisibilityWind DirectionWind SpeedGust SpeedPrecipitationEventsConditions
12:35 AM23.0 °F19.4 °F86 %30.38 in7.0 miCalmOvercast
12:55 AM23.0 °F21.2 °F93 %30.39 in7.0 miCalmOvercast
1:15 AM24.8 °F19.4 °F80 %30.38 in7.0 miCalmOvercast
1:35 AM24.8 °F19.4 °F80 %30.38 in8.0 miCalmOvercast
1:55 AM24.8 °F21.2 °F86 %30.38 in8.0 miCalmOvercast
2:15 AM24.8 °F19.4 °F80 %30.38 in8.0 miCalmOvercast
2:35 AM24.8 °F19.4 °F80 %30.37 in7.0 miCalmOvercast
2:55 AM24.8 °F21.2 °F86 %30.36 in5.0 miCalmOvercast
3:15 AM23.0 °F21.2 °F93 %30.36 in5.0 miCalmOvercast
3:35 AM23.0 °F21.2 °F93 %30.36 in6.0 miCalmOvercast
3:55 AM23.0 °F21.2 °F93 %30.36 in5.0 miCalmOvercast
4:15 AM23.0 °F21.2 °F93 %30.35 in5.0 miSSW (210°)4.6 mphOvercast
4:35 AM23.0 °F21.2 °F93 %30.35 in5.0 miCalmOvercast
4:55 AM24.8 °F19.4 °F80 %30.34 in7.0 miCalmOvercast
5:15 AM23.0 °F21.2 °F93 %30.34 in5.0 miCalmOvercast
5:35 AM23.0 °F19.4 °F86 %30.35 in5.0 miCalmOvercast
5:55 AM23.0 °F19.4 °F86 %30.34 in5.0 miCalmOvercast
6:15 AM23.0 °F19.4 °F86 %30.35 in6.0 miCalmOvercast
6:35 AM23.0 °F19.4 °F86 %30.35 in6.0 miCalmOvercast
6:47 AM23.0 °F19.4 °F86 %30.35 in7.0 miCalmOvercast
7:50 AM24.8 °F19.4 °F80 %30.37 in5.0 miCalmMostly Cloudy
8:50 AM24.8 °F21.2 °F86 %30.38 in5.0 miCalmMostly Cloudy
9:47 AM24.8 °F21.2 °F86 %30.38 in5.0 miCalmMostly Cloudy
10:49 AM26.6 °F21.2 °F80 %30.38 in7.0 miCalmScattered Clouds
11:50 AM28.4 °F21.2 °F74 %30.38 in6.0 miCalmHaze
12:50 PM28.4 °F21.2 °F74 %30.35 in8.0 miCalmHaze
1:50 PM32.0 °F23.0 °F69 %30.33 in8.0 miCalmHaze
2:47 PM33.8 °F21.2 °F60 %30.31 in8.0 miCalmHaze
4:05 PM30.2 °F21.2 °F69 %30.31 in8.0 miCalmHaze
5:50 PM30.2 °F23.0 °F75 %30.28 in10.0 miCalmMostly Cloudy
6:50 PM30.2 °F23.0 °F75 %30.28 in10.0 miCalmMostly Cloudy
7:49 PM30.2 °F26.6 °F86 %30.28 in10.0 miCalmMostly Cloudy
8:55 PM28.4 °F24.8 °F86 %30.28 in10.0 miCalmMostly Cloudy
9:15 PM28.4 °F24.8 °F86 %30.29 in8.0 miWest (260°)3.5 mphOvercast
9:35 PM28.4 °F24.8 °F86 %30.29 in9.0 miCalmOvercast
9:55 PM28.4 °F24.8 °F86 %30.28 in10.0 miSSW (200°)4.6 mphOvercast
10:15 PM26.6 °F23.0 °F86 %30.28 in9.0 miSSW (210°)3.5 mphOvercast
10:35 PM26.6 °F21.2 °F80 %30.28 in10.0 miSSW (210°)3.5 mphOvercast
10:55 PM26.6 °F21.2 °F80 %30.28 in10.0 miCalmOvercast
11:15 PM26.6 °F21.2 °F80 %30.28 in10.0 miCalmOvercast
11:35 PM26.6 °F21.2 °F80 %30.28 in9.0 miWest (270°)4.6 mphScattered Clouds
11:55 PM24.8 °F19.4 °F80 %30.28 in7.0 miCalmMostly Cloudy
Hourly data recorded from KPVU, located miles away from Draper, Utah







STORIES FROM OUR PARTNERS